Location: Newark
(13.8625°N, 100.5144°E)
Time: 23:33:17
(UTC+00:00)

Envisat - Visible Passes

Search period start: 08 May 2021 00:00
Search period end: 18 May 2021 00:00
Orbit: 764 x 766 km, 98.1° (Epoch: 08 May)

Date Brightness Start Highest point End Pass type
(mag) Time Alt. Az. Time Alt. Az. Time Alt. Az.
09 May 4.6 22:00:45 10° NE 22:05:22 36° E 22:09:59 10° SSE visible
10 May 5.9 21:26:22 10° ENE 21:28:31 13° E 21:30:41 10° SE visible
11 May 3.3 22:25:39 10° NNE 22:30:43 75° ESE 22:35:46 10° S visible
12 May 5.1 21:49:42 10° NE 21:53:55 26° E 21:58:07 10° SSE visible
14 May 3.8 22:14:20 10° NNE 22:19:17 54° ESE 22:24:13 10° S visible
15 May 5.6 21:38:52 10° NE 21:42:28 20° E 21:46:03 10° SE visible
17 May 4.4 22:03:06 10° NNE 22:07:49 39° E 22:12:32 10° S visible
